Location: ????????
(55.1591°N, 39.1782°E)
Time: 08:15:18
(UTC+00:00)

Resurs 1-4 Rocket - Pass Details

Date: 14 April 2024
Orbit: 798 x 814 km, 98.7° (Epoch: 19 May)

Event Time Altitude Azimuth Distance (km) Brightness Sun altitude
Rises 01:34:28 0° 11° (N) 3,349 5.9 -7.0°
Reaches altitude 10° 01:37:28 10° 354° (N) 2,411 4.9 -6.6°
Maximum altitude 01:41:02 19° 312° (NW) 1,869 3.8 -6.2°
Drops below altitude 10° 01:44:35 10° 269° (W) 2,396 4.0 -5.7°
Enters shadow 01:45:54 - 260° (W) 2,774 4.3 -5.6°
